Location: *
(55.5817°S, 142.4781°W)
Time: 07:05:23
(UTC+00:00)

CZ-4 R/B - Pass Details

Date: 29 April 2025
Orbit: 552 x 561 km, 97.6° (Epoch: 23 May)

Event Time Altitude Azimuth Distance (km) Brightness Sun altitude
Rises 15:33:51 0° 10° (N) 2,752 8.2 -11.1°
Reaches altitude 10° 15:35:58 10° 7° (N) 1,866 7.2 -10.9°
Maximum altitude 15:40:00 69° 283° (WNW) 619 4.4 -10.3°
Drops below altitude 10° 15:44:07 10° 199° (SSW) 1,897 6.8 -9.7°
Sets 15:46:18 0° 196° (SSW) 2,804 7.6 -9.4°
